Weather in Izotino

Russia / Ivanovo Oblast     56°33′00″N   41°41′57″E
temp.,
°C
wind,
m/s
gust,
m/s
humid.,
%
clouds,
%
prec.,
mm/h
press.,
hPa
HPBL,
m
3 march, wed
wed300:00−4nw4129163 0.0 1006519
03:00−6nw5139151 0.0 1008535
06:00−7nw51292100 0.0 1009525
09:00−6nw51190100 0.1 1011606
12:00−3nw5107998 0.0 10101005
15:00−2w598892 0.1 1010886
18:00−2w51196100 0.2 1007602
21:00−3w51293100 0.3 1007655
4 march, thu
thu400:00−2w51194100 0.1 1004733
03:00−2wsw61394100 0.3 1001752
06:00−1wsw51197100 0.6 998579
09:000wnw51085100 2.6 9971128
12:000wnw6107572 0.1 9971194
15:00−2nw588386 0.1 999901
18:00−4wnw2788100 0.0 999343
21:00−7nw2393100 0.0 100184
5 march, fri
fri500:00−9n2295100 0.0 100132
03:00−10n239499 0.0 100263
06:00−12n2396100 0.0 100478
09:00−11nnw249154 0.0 1006229
12:00−7nnw24798 0.0 1007521
15:00−5nw22734 0.0 1009682
18:00−8sw128490 0.0 100921
21:00−10wsw239260 0.0 101126
6 march, sat
sat600:00−10wsw249649 0.1 1011124
03:00−12wnw259662 0.1 1012104
06:00−14nw379584 0.0 1013188
09:00−14nnw359172 0.0 1014267
12:00−10nw35784 0.0 1015720
15:00−8wnw357418 0.0 10141031
18:00−11wsw388999 0.0 1013242
21:00−13wsw379060 0.0 1013161
7 march, sun
sun700:00−12sw4109048 0.0 1011278
03:00−11ssw4119257 0.0 1008330
06:00−9ssw5148190 0.0 1004560
09:00−8ssw7149095 0.3 1000962
12:00−5ssw81487100 0.4 9951132
15:00−3ssw81592100 1.9 9901124
18:00−3sw81595100 1.8 9881086
21:00−9wsw31084100 2.9 990376